Temperature
18 18 18 17 17 17 17 17 16 16 16 16 16 16 16 16 16 16 16 16 15 15 15 15 15 15 15 15 15 15 15 15 15 15 15 15 14 15 15 15 15 15 15
18 18 18 17 17 17 17 17 16 16 16 16 16 16 16 16 16 16 15 15 15 15 15 15 15 15 15 15 15 15 15 15 15 15 15 15 14 14 14 14 14 15 15
18 18 18 17 17 17 17 17 16 16 16 16 16 16 16 16 16 16 15 15 15 15 15 15 15 15 15 15 15 15 15 15 15 15 15 15 14 14 14 14 14 14 14
18 18 18 17 17 17 17 17 17 16 16 16 16 16 16 16 16 15 15 15 15 15 15 15 15 15 15 15 15 15 15 15 15 15 15 15 15 14 14 14 14 14 14
18 18 18 18 18 17 17 17 17 16 16 16 16 16 16 16 16 15 15 15 15 15 15 15 15 15 15 15 15 15 15 15 15 15 15 15 15 15 14 14 14 14 14
18 18 18 18 18 17 17 17 17 17 16 16 16 16 16 16 16 16 15 15 15 15 15 15 15 15 15 15 15 15 15 15 15 15 15 15 15 15 15 14 14 14 13
19 18 18 18 18 18 17 17 17 17 16 16 16 16 16 16 16 16 16 16 15 15 15 15 15 15 15 15 15 15 15 15 15 15 15 15 15 15 15 14 14 14 13
19 19 18 18 18 18 17 17 17 17 17 16 16 16 16 16 16 16 16 16 15 15 15 15 15 15 15 15 15 15 15 15 15 15 15 15 15 15 15 14 14 14 13
19 19 19 18 18 18 18 17 17 17 17 17 16 16 16 16 16 16 15 15 15 15 15 15 15 15 15 15 15 15 15 15 15 15 15 15 14 14 14 14 14 14 13
19 19 19 18 18 18 18 17 17 17 17 17 16 16 16 16 16 16 15 15 15 15 15 15 15 15 15 15 15 15 15 15 15 14 14 14 14 14 14 14 14 14 14
19 19 19 19 18 18 18 18 17 17 17 17 17 16 16 16 16 16 16 15 15 15 15 15 15 15 15 15 15 15 15 14 14 14 14 14 14 14 14 14 14 14 13
20 19 19 19 18 18 18 18 17 17 17 17 17 16 16 16 16 16 16 16 15 15 15 15 15 15 15 15 15 14 14 14 14 14 14 14 14 14 13 13 13 13 13
20 19 19 19 18 18 18 18 17 17 17 17 17 16 16 16 16 16 16 16 16 15 15 15 15 15 15 15 14 14 14 14 14 14 14 14 13 13 13 13 13 13 13
20 19 19 19 18 18 18 18 18 17 17 17 17 17 17 16 16 16 16 16 16 15 15 15 15 15 15 15 14 14 14 14 14 14 13 13 13 13 13 13 13 13 13
19 19 19 19 19 18 18 18 18 17 17 17 17 17 17 16 16 16 16 16 15 15 15 15 15 15 15 14 14 14 14 14 14 14 13 13 13 13 13 13 13 13 13
20 20 19 19 19 18 18 18 18 18 17 17 17 17 17 16 16 16 16 16 15 15 15 15 15 15 15 14 14 14 14 14 14 14 13 13 13 13 13 13 13 12 12
20 20 20 19 19 19 18 18 18 18 17 17 17 17 17 16 16 16 16 16 15 15 15 15 15 15 14 14 14 14 14 14 14 13 13 13 13 13 13 12 12 12 12
20 20 20 20 19 19 19 18 18 18 17 17 17 17 17 16 16 16 16 16 15 15 15 15 15 15 14 14 14 14 14 14 13 13 13 13 13 13 12 12 12 12 12
20 20 20 20 19 19 19 18 18 18 17 17 17 17 17 16 16 16 16 16 15 15 15 15 15 15 14 14 14 14 14 14 13 13 13 13 13 12 12 12 12 12 12
20 20 20 20 19 19 19 18 18 18 18 17 17 17 17 16 16 16 16 16 15 15 15 15 15 14 14 14 14 14 14 14 13 13 13 13 12 12 12 12 12 12 11
20 20 20 19 19 19 18 18 18 18 18 17 17 17 17 17 16 16 16 16 15 15 15 15 15 14 14 14 14 14 13 13 13 13 13 12 12 12 12 12 11 11 11
20 19 19 19 19 18 18 18 18 18 17 17 17 17 17 16 16 16 16 16 15 15 15 15 14 14 14 14 14 14 13 13 13 13 12 12 12 12 11 11 11 11 11
19 19 19 19 18 18 18 18 18 17 17 17 17 17 16 16 16 16 16 15 15 15 15 15 14 14 14 14 14 13 13 13 13 12 12 12 11 11 11 11 11 10 10
18 18 18 18 18 18 18 18 17 17 17 17 17 16 16 16 16 16 16 15 15 15 15 14 14 14 14 14 14 13 13 13 13 12 12 11 11 11 11 10 10 10 10
18 18 18 18 18 18 18 17 17 17 17 17 16 16 16 16 16 16 16 15 15 15 15 14 14 14 14 14 14 13 13 13 12 12 12 11 11 11 10 10 10 10 9
17 17 17 17 17 17 17 17 17 17 16 16 16 16 16 16 15 15 15 15 15 14 14 14 14 14 13 13 13 13 12 12 12 12 11 11 11 11 10 10 9 9 9
Wind_Speed
7 7 8 8 7 6 6 6 5 4 4 3 3 3 2 2 2 3 5 6 6 7 6 4 4 4 4 3 3 3 4 4 3 4 4 5 5 5 4 4 5 5 6
6 7 8 7 7 7 6 6 6 5 5 4 3 2 2 1 1 2 5 5 6 6 6 5 4 4 4 4 4 3 3 2 2 3 3 3 4 4 5 4 4 5 5
10 9 8 8 7 8 8 8 6 6 5 4 3 3 3 3 3 3 2 3 5 6 6 5 4 4 4 3 3 3 4 2 2 2 3 3 2 1 4 4 5 4 4
10 10 10 9 9 8 7 7 7 6 6 6 5 5 4 2 1 1 1 2 5 6 6 6 5 4 4 4 2 3 3 3 2 2 2 2 3 3 1 3 4 4 4
13 13 12 11 9 8 8 7 7 6 6 6 6 6 4 2 1 1 2 2 3 4 6 6 5 4 3 4 4 4 4 3 2 2 2 3 3 3 3 1 2 3 3
13 12 10 9 8 7 7 8 8 6 6 6 6 6 6 4 3 2 2 1 1 2 3 5 5 4 3 3 3 3 4 3 3 3 2 2 2 2 3 2 1 1 2
12 12 11 10 9 9 8 8 9 7 6 6 6 6 6 6 5 4 4 3 2 1 1 3 3 2 3 3 3 3 3 3 3 3 2 2 2 2 3 4 2 1 1
12 12 12 11 10 10 10 9 9 8 7 7 6 5 5 4 3 4 4 4 3 2 2 3 3 3 4 4 4 3 2 2 3 3 3 2 2 2 3 3 4 2 2
12 12 11 11 11 11 10 11 10 8 8 7 6 6 5 5 5 4 3 3 3 3 3 3 3 3 4 4 4 3 2 3 3 3 3 3 2 2 2 3 4 4 2
11 11 11 11 10 10 9 9 10 9 8 7 7 6 6 6 5 5 4 4 3 3 4 3 3 2 2 3 4 3 2 4 3 2 3 3 2 2 2 2 2 3 4
11 11 10 10 9 8 8 8 8 8 7 7 6 6 6 5 5 5 5 4 3 4 4 3 3 3 2 2 3 2 3 3 3 3 3 2 2 2 2 2 3 3 3
10 10 10 9 8 9 8 8 8 8 8 8 7 7 6 6 5 5 5 5 4 4 4 3 3 3 3 2 3 2 3 3 3 2 3 2 2 3 2 2 3 2 2
9 8 9 9 10 9 9 9 8 9 8 8 8 7 6 6 6 6 5 5 5 4 3 4 4 3 3 3 3 3 3 3 2 2 3 2 3 2 2 2 2 2 2
10 9 9 9 9 9 9 9 8 8 8 8 8 8 7 7 7 6 5 5 5 5 4 4 4 3 3 3 3 3 3 2 2 2 2 2 3 3 2 2 2 2 2
9 10 10 9 9 8 8 8 8 8 8 8 8 8 7 6 6 6 6 5 5 5 5 4 3 3 3 4 4 4 4 3 2 1 1 2 3 3 3 3 3 3 2
10 11 11 10 10 10 9 9 8 8 8 9 9 7 7 7 7 7 6 5 5 4 4 4 4 4 3 5 7 6 4 3 3 2 1 0 1 2 3 3 4 5 4
8 10 11 11 11 11 10 11 9 8 8 8 8 8 8 7 7 7 7 6 6 5 4 4 5 4 5 6 7 8 5 4 3 3 2 1 1 2 1 2 3 2 2
9 9 9 9 9 9 9 9 8 8 8 8 8 8 8 8 7 7 7 6 5 5 5 5 5 5 5 7 7 7 5 3 3 3 3 2 1 1 3 2 2 1 1
8 8 8 8 8 8 9 9 9 8 8 8 8 9 9 9 8 7 7 6 5 5 5 5 6 5 5 7 7 7 4 3 2 2 3 3 2 3 4 4 2 0 2
6 6 5 6 7 7 8 9 9 9 9 9 9 9 9 9 9 8 7 5 5 6 5 5 5 6 6 7 8 8 4 3 2 1 2 3 3 4 5 4 4 2 2
5 6 6 6 7 7 8 8 8 9 9 7 7 7 8 9 8 7 6 5 6 5 5 4 4 5 6 7 8 8 5 5 3 2 2 2 3 4 4 4 4 4 2
4 5 6 5 5 7 8 8 8 7 6 6 7 7 7 8 7 7 6 6 6 6 5 4 3 2 4 6 7 8 8 7 5 4 3 3 4 3 3 3 4 3 3
3 4 5 5 4 5 7 8 7 6 6 6 7 7 7 6 7 8 7 5 6 5 5 5 4 3 2 4 7 8 9 9 5 4 5 4 3 2 1 2 3 3 2
2 2 4 4 4 4 5 6 6 7 8 8 7 6 7 6 6 6 6 6 6 6 6 6 5 4 3 3 3 4 4 6 4 3 3 3 3 2 1 1 1 1 2
1 2 4 5 5 4 4 4 5 7 7 7 6 6 6 6 6 5 5 6 6 7 8 7 7 6 6 7 9 7 5 5 5 5 2 2 1 1 0 0 0 0 1
1 2 2 3 3 4 4 4 5 7 8 6 6 5 5 4 5 4 2 1 3 6 8 8 8 6 7 8 10 10 10 10 10 6 3 3 3 3 3 3 1 1 1
Wind_Direction
190 165 164 161 160 159 151 149 145 142 127 109 102 91 72 45 34 34 54 65 76 83 90 90 84 83 87 88 91 87 73 58 63 74 49 27 32 39 40 51 65 63 69
176 171 165 162 171 170 163 158 157 150 148 146 145 138 131 108 73 30 41 60 78 84 95 92 88 89 94 81 78 90 85 49 52 101 91 44 14 10 23 36 59 52 56
179 180 175 174 177 176 174 169 168 159 155 140 110 87 65 49 36 29 25 34 75 86 89 95 97 93 99 101 94 103 107 89 30 71 126 129 169 343 0 25 41 45 49
178 179 180 179 185 187 177 167 167 161 152 137 129 130 128 131 184 173 60 43 70 84 91 95 94 94 93 97 93 96 102 107 67 32 51 118 146 132 62 1 15 32 46
180 184 186 186 187 181 173 169 163 159 152 145 144 138 135 150 139 97 84 65 52 68 85 95 94 94 93 93 87 87 87 97 103 84 72 69 64 84 122 104 353 13 17
182 186 186 181 182 176 168 166 161 164 161 151 147 147 149 146 131 123 122 97 59 37 70 95 95 97 96 92 95 95 93 92 90 86 85 109 108 112 115 129 108 19 354
181 182 181 184 180 174 172 167 163 167 168 160 157 159 160 158 159 162 155 142 128 102 87 92 99 97 102 105 100 92 91 93 92 94 91 95 116 136 129 123 123 71 356
183 185 186 185 180 177 174 169 170 172 173 166 167 164 157 157 162 165 158 157 167 177 162 121 112 108 101 102 97 87 85 87 90 93 93 84 77 106 128 139 132 92 23
186 187 186 184 181 180 180 176 173 175 177 172 167 165 164 160 159 157 150 152 163 162 144 126 116 108 100 100 98 88 82 89 85 85 85 84 73 84 96 118 136 138 132
186 185 184 185 184 184 182 175 173 177 177 172 172 170 167 163 158 149 151 152 156 146 139 127 128 120 105 103 98 89 81 85 74 85 87 75 68 71 81 100 105 125 142
185 183 183 181 175 172 171 171 174 173 173 174 170 164 167 164 155 155 162 162 153 146 145 146 140 139 131 116 106 100 94 91 74 76 94 81 74 74 71 79 87 97 119
175 174 174 172 171 172 175 176 178 179 180 175 169 171 169 162 161 166 167 162 157 153 148 145 141 149 152 146 131 122 104 110 108 99 96 81 88 77 69 81 90 98 116
166 165 168 173 178 180 180 181 182 184 180 172 169 170 173 171 174 178 174 166 161 159 153 143 150 161 165 159 154 141 126 128 131 132 126 120 109 94 85 91 99 99 97
171 171 179 183 183 183 183 185 188 183 177 172 172 175 182 181 180 178 175 174 168 165 167 163 169 171 165 159 152 141 133 125 122 136 141 139 142 154 142 122 129 122 97
178 182 186 190 188 186 188 186 188 183 177 174 179 187 186 179 175 175 176 174 172 176 172 164 173 171 166 172 165 154 147 139 126 100 126 151 153 158 154 145 156 139 124
188 190 190 189 189 190 191 190 188 183 174 177 186 185 180 176 176 178 175 168 173 174 166 168 176 183 188 172 170 158 152 153 147 142 126 104 116 127 135 136 150 154 153
189 191 192 193 194 194 190 189 189 179 174 180 182 179 179 179 181 178 171 173 178 178 178 180 177 188 196 175 165 161 152 154 165 175 177 142 107 107 111 100 91 109 134
187 192 193 192 192 189 185 181 176 173 179 183 186 183 180 181 177 171 176 180 177 178 183 188 186 185 198 185 174 163 152 155 173 182 177 177 225 178 151 132 99 15 311
185 189 188 185 182 183 180 169 173 174 179 187 190 187 182 180 178 180 183 181 175 181 187 183 181 185 203 195 185 167 152 163 203 209 184 183 208 202 163 140 150 292 318
176 174 170 164 171 180 168 167 177 181 191 196 194 189 184 181 184 188 186 180 176 184 182 185 191 191 202 201 192 170 156 169 206 241 220 204 204 206 175 162 167 198 261
162 158 153 163 180 172 161 169 180 196 200 190 184 184 184 185 184 182 179 172 171 170 175 183 198 200 204 200 195 179 169 180 187 209 235 235 208 191 182 172 180 197 191
150 149 150 162 175 170 165 176 193 199 186 176 176 182 184 186 182 173 177 174 168 169 178 181 201 220 209 194 193 186 183 176 179 205 219 216 198 183 179 172 175 170 136
155 159 155 160 169 174 173 185 198 182 172 169 180 185 185 187 177 176 179 177 176 178 188 187 200 217 215 207 200 194 188 183 185 198 197 189 181 166 153 163 164 146 137
139 152 152 160 180 187 186 192 190 175 169 173 179 182 181 185 182 181 181 182 188 190 194 197 203 209 209 210 200 187 179 177 174 170 149 130 119 117 116 91 109 147 161
167 149 167 178 195 196 197 197 182 172 171 173 175 176 179 179 179 182 188 192 201 197 196 202 198 196 213 219 196 182 184 183 177 146 114 104 107 118 128 322 264 166 149
169 145 166 182 194 189 196 198 182 172 168 171 174 176 175 175 173 168 157 171 203 214 207 202 196 205 207 200 193 192 189 180 164 143 157 181 188 198 206 202 207 206 208
Height
1533 1535 1537 1539 1541 1542 1543 1544 1546 1547 1548 1549 1549 1550 1550 1550 1550 1551 1551 1551 1551 1550 1551 1551 1550 1551 1551 1551 1551 1551 1551 1551 1551 1551 1551 1552 1552 1552 1551 1551 1550 1549 1548
1532 1534 1536 1538 1540 1541 1543 1544 1545 1547 1548 1549 1549 1550 1550 1551 1551 1551 1551 1551 1551 1551 1551 1551 1551 1551 1551 1551 1552 1552 1551 1551 1552 1552 1552 1553 1554 1553 1553 1552 1552 1551 1550
1530 1532 1535 1537 1539 1541 1542 1544 1545 1546 1547 1548 1549 1550 1551 1551 1551 1552 1552 1552 1552 1552 1552 1552 1552 1552 1552 1552 1552 1552 1552 1552 1553 1553 1553 1553 1554 1554 1555 1554 1553 1553 1552
1528 1531 1533 1535 1537 1540 1542 1543 1545 1546 1547 1548 1549 1550 1551 1551 1552 1552 1552 1552 1553 1553 1553 1553 1553 1553 1553 1553 1553 1553 1553 1553 1553 1553 1553 1554 1554 1554 1555 1556 1555 1554 1553
1526 1529 1531 1533 1536 1539 1541 1543 1544 1546 1547 1548 1549 1550 1551 1551 1552 1552 1552 1553 1553 1553 1553 1553 1553 1553 1553 1553 1553 1553 1553 1553 1553 1553 1554 1554 1554 1554 1555 1555 1556 1556 1555
1524 1527 1530 1533 1535 1538 1540 1542 1544 1545 1547 1548 1549 1550 1551 1551 1552 1552 1553 1553 1553 1554 1554 1554 1554 1554 1554 1554 1554 1554 1554 1554 1554 1554 1554 1554 1554 1555 1555 1555 1556 1556 1556
1522 1525 1528 1531 1533 1536 1538 1540 1542 1544 1546 1547 1548 1549 1550 1551 1552 1552 1553 1553 1554 1554 1554 1554 1554 1555 1555 1555 1555 1555 1555 1555 1555 1555 1555 1555 1555 1555 1556 1556 1556 1556 1557
1520 1522 1525 1528 1531 1534 1536 1538 1541 1543 1545 1546 1548 1549 1550 1551 1551 1552 1552 1553 1553 1554 1554 1555 1555 1555 1555 1555 1555 1556 1556 1556 1555 1555 1555 1555 1555 1556 1556 1556 1556 1557 1557
1518 1520 1524 1526 1529 1532 1534 1536 1539 1541 1543 1545 1546 1548 1549 1550 1551 1552 1552 1553 1553 1554 1554 1555 1555 1555 1556 1556 1556 1556 1556 1556 1556 1556 1556 1556 1556 1556 1556 1556 1557 1557 1557
1516 1518 1522 1525 1527 1530 1533 1535 1537 1540 1542 1544 1545 1547 1548 1549 1550 1551 1552 1552 1553 1554 1554 1554 1555 1555 1556 1556 1556 1557 1557 1557 1557 1557 1557 1556 1556 1556 1556 1557 1557 1557 1557
1513 1516 1520 1523 1526 1529 1532 1534 1536 1538 1540 1542 1544 1545 1547 1548 1549 1550 1551 1552 1553 1553 1554 1555 1555 1555 1556 1556 1557 1557 1557 1557 1557 1557 1557 1557 1557 1556 1556 1556 1556 1556 1556
1512 1515 1518 1522 1525 1527 1530 1532 1534 1537 1539 1541 1543 1544 1546 1547 1548 1549 1550 1551 1552 1553 1554 1554 1555 1555 1556 1556 1557 1557 1557 1557 1557 1557 1557 1557 1557 1556 1556 1556 1556 1556 1556
1512 1514 1517 1520 1523 1525 1527 1530 1532 1534 1537 1539 1541 1543 1544 1545 1547 1548 1549 1550 1551 1552 1553 1554 1554 1555 1556 1556 1557 1557 1557 1557 1557 1557 1557 1557 1556 1556 1556 1556 1556 1556 1556
1510 1513 1516 1518 1521 1523 1525 1528 1530 1532 1535 1537 1539 1540 1542 1544 1545 1546 1548 1549 1550 1551 1552 1553 1554 1554 1555 1556 1556 1556 1556 1557 1557 1557 1557 1557 1556 1556 1556 1556 1556 1555 1555
1509 1511 1514 1516 1518 1521 1523 1526 1528 1530 1532 1534 1536 1538 1540 1542 1544 1545 1546 1548 1549 1550 1551 1552 1553 1554 1554 1555 1555 1556 1556 1556 1556 1556 1556 1556 1556 1556 1555 1555 1555 1555 1554
1507 1509 1511 1514 1516 1518 1521 1523 1525 1528 1530 1532 1534 1536 1538 1540 1541 1543 1545 1546 1547 1549 1550 1551 1552 1553 1553 1554 1555 1555 1555 1555 1556 1556 1555 1555 1555 1555 1555 1554 1554 1554 1553
1505 1507 1509 1511 1513 1515 1518 1520 1523 1525 1527 1529 1531 1533 1536 1537 1539 1541 1543 1544 1546 1547 1548 1549 1550 1551 1552 1553 1553 1554 1554 1554 1555 1555 1554 1554 1554 1554 1553 1553 1553 1552 1552
1503 1505 1506 1508 1511 1513 1516 1518 1521 1523 1525 1527 1529 1531 1533 1535 1537 1539 1540 1542 1544 1545 1546 1548 1549 1550 1551 1551 1552 1553 1553 1553 1553 1553 1553 1553 1552 1552 1552 1551 1551 1551 1550
1501 1503 1504 1507 1509 1511 1514 1516 1519 1521 1523 1525 1527 1529 1531 1532 1534 1536 1538 1539 1541 1543 1544 1545 1547 1548 1549 1550 1550 1551 1551 1551 1551 1551 1551 1551 1550 1550 1550 1550 1549 1548 1548
1499 1501 1503 1505 1507 1509 1512 1514 1516 1518 1520 1522 1524 1526 1528 1530 1532 1533 1535 1537 1538 1540 1542 1543 1544 1545 1546 1548 1548 1549 1549 1549 1549 1549 1549 1549 1548 1548 1548 1547 1547 1546 1546
1498 1499 1501 1503 1505 1507 1510 1511 1513 1515 1517 1519 1521 1523 1525 1527 1529 1531 1533 1534 1536 1537 1538 1540 1541 1543 1544 1545 1546 1546 1546 1546 1546 1546 1546 1546 1546 1545 1545 1545 1544 1544 1543
1496 1498 1499 1501 1503 1506 1507 1509 1511 1513 1515 1517 1519 1520 1523 1525 1527 1528 1530 1531 1533 1534 1535 1537 1538 1539 1540 1541 1542 1543 1543 1544 1544 1543 1543 1543 1543 1543 1542 1542 1541 1541 1540
1495 1496 1498 1499 1502 1504 1505 1507 1508 1511 1512 1514 1516 1518 1520 1522 1523 1525 1527 1528 1530 1531 1532 1533 1534 1535 1537 1538 1539 1539 1540 1540 1540 1540 1540 1540 1540 1540 1539 1539 1539 1538 1537
1494 1495 1496 1497 1499 1501 1503 1504 1506 1508 1509 1511 1513 1514 1516 1518 1520 1522 1523 1525 1526 1527 1528 1529 1530 1532 1533 1534 1535 1535 1536 1536 1536 1536 1536 1537 1536 1536 1536 1536 1535 1535 1534
1492 1493 1494 1495 1496 1498 1500 1501 1503 1505 1506 1508 1509 1511 1513 1514 1516 1518 1519 1521 1522 1524 1525 1526 1527 1528 1529 1530 1531 1532 1532 1532 1532 1533 1533 1533 1533 1532 1532 1532 1532 1531 1531
1490 1491 1492 1493 1494 1495 1497 1498 1500 1501 1503 1504 1506 1508 1509 1511 1512 1514 1516 1517 1519 1520 1522 1523 1523 1524 1525 1526 1527 1527 1528 1528 1529 1529 1528 1529 1529 1529 1528 1528 1528 1527 1527